Location: Daytona Beach
(29.2106°N, 81.0231°W)
Time: 06:21:15
(UTC-04:00)

X-37B - Visible Passes

Search period start: 19 June 2021 00:00
Search period end: 29 June 2021 00:00
Orbit: 386 x 389 km, 45.0° (Epoch: 10 June)

Date Brightness Start Highest point End Pass type
(mag) Time Alt. Az. Time Alt. Az. Time Alt. Az.
19 Jun 3.8 05:12:31 10° N 05:14:14 14° NNE 05:15:57 10° ENE visible
20 Jun 1.9 05:49:43 10° NW 05:52:48 45° NE 05:55:51 10° ESE visible
21 Jun 3.2 04:51:43 10° NNW 04:54:20 23° NNE 04:56:56 10° E visible
21 Jun 1.4 21:23:01 10° SSW 21:25:51 30° SE 21:28:32 11° ENE visible
21 Jun 3.4 22:59:54 10° W 23:01:06 17° WNW 23:01:06 17° WNW visible
22 Jun 3.9 03:54:02 10° N 03:55:47 14° NNE 03:57:30 10° ENE visible
22 Jun 0.4 05:29:32 10° NW 05:32:41 74° SW 05:35:49 10° SE visible
22 Jun 1.8 22:00:58 10° WSW 22:04:01 44° NW 22:07:05 10° NE visible
23 Jun 1.6 04:32:12 17° NW 04:34:19 46° NE 04:37:22 10° ESE visible
23 Jun 0.5 21:02:29 10° SW 21:05:39 78° SE 21:08:50 10° NE visible
23 Jun 3.9 22:40:53 10° WNW 22:42:34 13° NNW 22:44:16 10° N visible
24 Jun 1.7 05:13:09 26° SSW 05:13:09 26° SSW 05:15:16 10° SSE visible
24 Jun 3.3 21:41:27 10° W 21:44:01 22° NNW 21:46:36 10° NNE visible
26 Jun 3.8 21:22:27 10° NW 21:24:07 13° NNW 21:25:47 10° N visible
